Location: Ahstedt
(52.2048°N, 10.1060°E)
Time: 00:22:10
(UTC+00:00)

Meteor 2-13 Rocket - Pass Details

Date: 18 January 2026
Orbit: 935 x 958 km, 82.5° (Epoch: 17 February)

Event Time Altitude Azimuth Distance (km) Brightness Sun altitude
Rises 04:46:16 0° 346° (NNW) 3,639 7.3 -22.7°
Reaches altitude 10° 04:48:50 10° 342° (NNW) 2,686 6.6 -22.3°
Maximum altitude 04:54:45 52° 268° (W) 1,168 4.5 -21.4°
Drops below altitude 10° 05:00:35 10° 194° (SSW) 2,653 6.7 -20.5°
Sets 05:03:06 0° 189° (S) 3,590 7.5 -20.1°
